TimeCST,TemperatureF,Dew PointF,Humidity,Sea Level PressureIn,VisibilityMPH,Wind Direction,Wind SpeedMPH,Gust SpeedMPH,PrecipitationIn,Events,Conditions,WindDirDegrees,DateUTC
12:53 AM,39.0,23.0,53,30.24,10.0,South,8.1,-,N/A,,Overcast,170,2013-12-13 06:53:00
1:53 AM,41.0,23.0,49,30.22,10.0,South,8.1,-,N/A,,Overcast,180,2013-12-13 07:53:00
2:53 AM,41.0,21.9,47,30.20,10.0,South,11.5,18.4,N/A,,Mostly Cloudy,180,2013-12-13 08:53:00
3:53 AM,39.9,23.0,51,30.21,10.0,South,9.2,-,0.00,Rain,Light Rain,180,2013-12-13 09:53:00
4:53 AM,39.9,23.0,51,30.19,10.0,South,11.5,-,0.00,,Scattered Clouds,180,2013-12-13 10:53:00
5:53 AM,39.9,24.1,53,30.17,10.0,South,5.8,-,N/A,,Overcast,170,2013-12-13 11:53:00
6:53 AM,39.9,25.0,55,30.14,10.0,South,4.6,-,N/A,,Overcast,180,2013-12-13 12:53:00
7:53 AM,39.0,25.0,57,30.14,10.0,SSE,8.1,-,N/A,,Mostly Cloudy,160,2013-12-13 13:53:00
8:53 AM,37.0,30.0,76,30.11,8.0,SSE,8.1,-,0.04,Rain,Light Rain,160,2013-12-13 14:53:00
9:53 AM,36.0,32.0,86,30.11,4.0,SSE,5.8,-,0.06,Rain,Rain,160,2013-12-13 15:53:00
10:53 AM,36.0,32.0,86,30.07,10.0,Variable,6.9,-,0.01,,Overcast,0,2013-12-13 16:53:00
11:53 AM,37.0,33.1,86,30.06,10.0,South,10.4,17.3,0.03,Rain,Light Rain,180,2013-12-13 17:53:00
12:53 PM,37.9,33.1,83,29.98,10.0,SSE,10.4,18.4,0.01,,Overcast,160,2013-12-13 18:53:00
1:50 PM,37.4,35.6,93,29.93,10.0,South,10.4,-,0.00,,Overcast,180,2013-12-13 19:50:00
1:53 PM,37.9,35.1,89,29.93,10.0,South,11.5,-,0.00,,Overcast,180,2013-12-13 19:53:00
2:32 PM,39.2,37.4,93,29.89,5.0,Variable,5.8,-,0.03,Rain-Thunderstorm,Light Rain,0,2013-12-13 20:32:00
2:48 PM,39.2,35.6,87,29.90,10.0,South,8.1,-,0.03,,Overcast,170,2013-12-13 20:48:00
2:53 PM,39.0,36.0,89,29.90,10.0,South,8.1,-,0.03,,Overcast,170,2013-12-13 20:53:00
3:53 PM,39.0,37.0,93,29.88,4.0,SSE,5.8,-,N/A,,Overcast,160,2013-12-13 21:53:00
4:53 PM,39.0,37.0,93,29.86,10.0,South,6.9,-,N/A,,Overcast,170,2013-12-13 22:53:00
5:53 PM,39.0,37.0,93,29.86,10.0,South,6.9,-,N/A,,Overcast,170,2013-12-13 23:53:00
6:24 PM,39.2,37.4,93,29.86,10.0,South,9.2,-,0.01,Rain-Thunderstorm,Light Thunderstorms and Rain,170,2013-12-14 00:24:00
6:53 PM,39.9,37.9,93,29.86,8.0,South,8.1,-,0.08,Rain-Thunderstorm,Light Rain,180,2013-12-14 00:53:00
7:04 PM,39.2,37.4,93,29.82,5.0,Variable,6.9,-,0.03,Rain,Rain,0,2013-12-14 01:04:00
7:53 PM,39.9,39.0,97,29.86,9.0,South,5.8,-,0.06,Rain,Light Rain,180,2013-12-14 01:53:00
8:53 PM,39.9,39.0,97,29.87,10.0,Calm,Calm,-,0.01,,Overcast,0,2013-12-14 02:53:00
9:18 PM,39.2,39.2,100,29.84,8.0,SE,4.6,-,N/A,,Overcast,130,2013-12-14 03:18:00
9:53 PM,39.9,39.0,97,29.86,5.0,South,5.8,-,N/A,,Overcast,170,2013-12-14 03:53:00
10:34 PM,39.2,39.2,100,29.85,2.0,Calm,Calm,-,N/A,,Overcast,0,2013-12-14 04:34:00
10:53 PM,39.9,39.0,97,29.86,2.0,Calm,Calm,-,N/A,,Overcast,0,2013-12-14 04:53:00
11:01 PM,39.2,39.2,100,29.85,1.8,Calm,Calm,-,N/A,,Overcast,0,2013-12-14 05:01:00
11:14 PM,39.2,39.2,100,29.85,1.2,Calm,Calm,-,N/A,,Overcast,0,2013-12-14 05:14:00
11:44 PM,39.2,39.2,100,29.85,0.8,Calm,Calm,-,N/A,,Mist,0,2013-12-14 05:44:00
11:53 PM,39.9,39.0,97,29.86,0.5,Calm,Calm,-,N/A,Fog,Fog,0,2013-12-14 05:53:00